Tracking 28081 objects as of 26-Sep-2023
HD Live streaming from Space Station
objects crossing your sky now

STARLINK-4526

Track STARLINK-4526 now!
10-day predictions
STARLINK-4526 is classified as:


NORAD ID: 53438
Int'l Code: 2022-097BC
Perigee: 546.0 km
Apogee: 547.7 km
Inclination: 53.2 °
Period: 95.4 minutes
Semi major axis: 6917 km
RCS: Unknown
Launch date: August 10, 2022
Source: United States (US)
Launch site: AIR FORCE EASTERN TEST RANGE (AFETR)
Your satellite tracking list
Your tracking list is empty




NASA's NSSDC Master Catalog

Two Line Element Set (TLE):
1 53438U 22097BC  23268.42713171  .00007634  00000-0  49704-3 0  9997
2 53438  53.2163 167.2425 0001172  88.7829 271.3297 15.08852394 63000
Source of the keplerian elements: AFSPC